TimeCDT,TemperatureF,Dew PointF,Humidity,Sea Level PressureIn,VisibilityMPH,Wind Direction,Wind SpeedMPH,Gust SpeedMPH,PrecipitationIn,Events,Conditions,WindDirDegrees,DateUTC
12:53 AM,57.9,44.1,60,30.01,10.0,NNE,3.5,-,N/A,,Mostly Cloudy,30,2013-03-20 05:53:00
1:53 AM,57.0,43.0,59,30.00,10.0,NE,4.6,-,N/A,,Partly Cloudy,50,2013-03-20 06:53:00
2:53 AM,55.0,42.1,62,29.98,10.0,NE,5.8,-,N/A,,Partly Cloudy,40,2013-03-20 07:53:00
3:53 AM,55.9,39.9,55,29.97,10.0,NE,4.6,-,N/A,,Mostly Cloudy,50,2013-03-20 08:53:00
4:53 AM,55.0,39.0,55,30.00,10.0,NE,5.8,-,N/A,,Mostly Cloudy,50,2013-03-20 09:53:00
5:53 AM,55.0,37.9,53,30.02,10.0,NNE,8.1,-,N/A,,Overcast,30,2013-03-20 10:53:00
6:53 AM,54.0,37.0,53,30.07,10.0,NNE,8.1,-,N/A,,Mostly Cloudy,30,2013-03-20 11:53:00
7:53 AM,54.0,34.0,47,30.09,10.0,NNE,4.6,-,N/A,Thunderstorm,Thunderstorm,30,2013-03-20 12:53:00
8:02 AM,53.6,35.6,51,30.09,10.0,NE,10.4,-,0.00,Rain,Light Rain,40,2013-03-20 13:02:00
8:53 AM,54.0,37.0,53,30.09,10.0,NE,6.9,-,0.01,,Mostly Cloudy,40,2013-03-20 13:53:00
9:53 AM,60.1,34.0,38,30.06,10.0,ENE,11.5,-,N/A,,Clear,60,2013-03-20 14:53:00
10:53 AM,63.0,33.1,33,30.05,10.0,NE,15.0,-,N/A,,Clear,50,2013-03-20 15:53:00
11:53 AM,64.0,33.1,31,30.05,10.0,NE,9.2,-,N/A,,Clear,50,2013-03-20 16:53:00
12:53 PM,66.9,34.0,30,30.01,10.0,NE,6.9,-,N/A,,Clear,50,2013-03-20 17:53:00
1:53 PM,64.0,34.0,33,29.99,10.0,North,5.8,-,N/A,,Mostly Cloudy,350,2013-03-20 18:53:00
2:53 PM,64.9,35.1,33,29.98,10.0,NNW,9.2,-,N/A,,Mostly Cloudy,340,2013-03-20 19:53:00
3:53 PM,64.9,34.0,32,29.97,10.0,North,6.9,-,N/A,,Clear,350,2013-03-20 20:53:00
4:53 PM,66.0,33.1,29,29.94,10.0,NW,8.1,-,N/A,,Clear,320,2013-03-20 21:53:00
5:53 PM,64.9,30.0,27,29.93,10.0,NNW,8.1,-,N/A,,Clear,340,2013-03-20 22:53:00
6:53 PM,59.0,33.1,38,29.94,10.0,NNW,4.6,-,N/A,,Clear,330,2013-03-20 23:53:00
7:53 PM,54.0,34.0,47,29.96,10.0,NW,6.9,-,N/A,,Clear,320,2013-03-21 00:53:00
8:53 PM,54.0,32.0,43,29.97,10.0,NNW,5.8,-,N/A,,Clear,330,2013-03-21 01:53:00
9:53 PM,52.0,32.0,47,29.99,10.0,WNW,3.5,-,N/A,,Clear,300,2013-03-21 02:53:00
10:53 PM,46.9,35.1,63,29.99,10.0,Calm,Calm,-,N/A,,Clear,0,2013-03-21 03:53:00
11:53 PM,46.0,35.1,66,29.99,10.0,Calm,Calm,-,N/A,,Clear,0,2013-03-21 04:53:00